Location: Isle of Man Observatory
(54.1776°N, 4.6264°W)
Time: 09:25:37
(UTC+01:00)

X-37B - Visible Passes

Search period start: 21 January 2021 00:00
Search period end: 31 January 2021 00:00
Orbit: 384 x 390 km, 45.0° (Epoch: 02 January)

Date Brightness Start Highest point End Pass type
(mag) Time Alt. Az. Time Alt. Az. Time Alt. Az.
22 Jan 3.0 19:44:27 10° SSW 19:46:05 13° SSE 19:46:16 13° SSE visible
23 Jan 3.3 18:47:11 10° S 18:47:53 11° SSE 18:48:36 10° SSE visible
23 Jan 3.2 20:21:36 10° SW 20:22:44 15° SSW 20:22:44 15° SSW visible
24 Jan 3.0 19:23:29 10° SSW 19:25:27 15° S 19:26:56 12° SE visible
25 Jan 3.2 18:25:37 10° SSW 18:27:14 13° SSE 18:28:51 10° SE visible
25 Jan 2.9 20:01:01 10° SW 20:03:05 16° S 20:03:26 16° S visible
26 Jan 3.0 19:02:45 10° SW 19:04:50 16° S 19:06:56 10° SE visible
26 Jan 3.6 20:39:17 10° SW 20:39:57 12° SSW 20:39:57 12° SSW visible
27 Jan 3.2 19:40:37 10° SW 19:42:29 15° S 19:44:15 10° SSE visible
28 Jan 3.2 18:42:11 10° SW 18:44:15 16° S 18:46:18 10° SE visible
29 Jan 3.5 19:20:27 10° SW 19:21:51 12° SSW 19:23:14 10° S visible
